sat.trackr.live / text

‹ back to catalog

TJS-17

NORAD 63524 · 2025-073A

PAYLOAD ACTIVE UNKNOWN

§ Identity

Operator
Country
PRC
Launch date
2025-04-10
Launch site
XICLF
Launch vehicle
Mass (kg)
RCS (m²)

Purposes: comms

External: N2YO · Heavens-Above · Gunter

§ Orbital elements

Epoch: 2026-09-19T19:52:02.834976Z

Period
1,436.09 min
Inclination
1.3012°
Eccentricity
0.0001250
Mean motion
1.00272064 rev/d
Perigee alt
35,781.2 km
Apogee alt
35,791.8 km
Semi-major
42,164.7 km
B*
0.0000e+0
RAAN
81.6709°
Arg perigee
172.5647°
Mean anomaly
207.0214°
Rev number
524

§ Raw data

TJS-171 63524U 25073A   26262.82781059 -.00000074  00000+0  00000+0 0  99952 63524   1.3012  81.6709 0001250 172.5647 207.0214  1.00272064  5249

JSON: /api/v1/satellites/63524 · /tle

For live sub-satellite position, see the globe view (requires WebGL).

§ Visibility from observer

Set your observer location to see the next 7 days of passes ≥ 10°. The values pass through the URL so the page stays shareable.

No JS? Fill the form by hand. The geolocation button needs JavaScript.